Location: Les Salelles
(44.4192°N, 4.1044°E)
Time: 16:44:39
(UTC+00:00)

OE (NEXTSAT) - Pass Details

Date: 20 January 2021
Orbit: 426 x 436 km, 46.0° (Epoch: 25 February)

Event Time Altitude Azimuth Distance (km) Brightness Sun altitude
Rises 18:10:26 0° 260° (W) 2,379 9.9 -16.5°
Reaches altitude 10° 18:12:33 10° 261° (W) 1,515 8.4 -16.9°
Maximum altitude 18:15:59 79° 349° (N) 438 4.2 -17.5°
Enters shadow 18:16:41 52° 64° (ENE) 534 4.3 -17.6°
